Regional Weather Roundup
Issued by NWS Green Bay, WI

Home | Current Version | Previous Version | Graphics & Text | Print | Product List | Glossary Off
Versions: 1 2 3 4 5 6 7 8 9 10 11 12 13 14 15 16 17 18 19 20 21 22 23 24 25 26 27 28 29 30 31 32 33 34 35 36 37 38 39 40 41 42 43 44 45 46 47 48 49 50

000
ASUS43 KGRB 031359
RWRGRB

NORTH-CENTRAL AND NORTHEAST WISCONSIN REGIONAL WEATHER ROUNDUP
NATIONAL WEATHER SERVICE GREEN BAY WI
900 AM CDT SUN MAY 03 2015

WIZ005-009-010>012-018-019-031500-
NORTH CENTRAL WISCONSIN

CITY           SKY/WX    TMP DP  RH WIND       PRES   REMARKS
IRONWOOD       PTSUNNY   64  52  63 S8        29.72F
MANITOWISH WTR NOT AVBL
ARBOR VITAE    NOT AVBL
EAGLE RIVER    NOT AVBL
LAND O LAKES   NOT AVBL
RHINELANDER    MOSUNNY   62  49  62 SW13G21   29.86S
PHILLIPS       NOT AVBL
ANTIGO         NOT AVBL
TOMAHAWK       NOT AVBL
MERRILL        NOT AVBL
$$

WIZ013-073-031500-
NORTHEAST WISCONSIN

CITY           SKY/WX    TMP DP  RH WIND       PRES   REMARKS
IRON MOUNTAIN  SUNNY     68  48  48 SW14G25   29.82F
MARINETTE      SUNNY     66  48  52 SW14      29.86R
$$

WIZ017-030-035>037-045-031500-
CENTRAL WISCONSIN

CITY           SKY/WX    TMP DP  RH WIND       PRES   REMARKS
MEDFORD        NOT AVBL
WAUSAU         CLOUDY    61  49  64 SW10      29.85R
MOSINEE        CLOUDY    61  52  72 SW9       29.87S
MARSHFIELD     CLOUDY    64  49  57 SW8       29.86S
WISC RAPIDS    CLOUDY    65  48  54 SW10      29.87S
STEVENS POINT  NOT AVBL
WAUPACA        NOT AVBL
SHAWANO        NOT AVBL
CLINTONVILLE   NOT AVBL
$$

WIZ038-039-048-051-031500-
FOX VALLEY

CITY           SKY/WX    TMP DP  RH WIND       PRES   REMARKS
NWS GREEN BAY  PTSUNNY   67  50  54 S13       29.89S
APPLETON       PTSUNNY   64  46  52 SW15      29.89S
OSHKOSH        PTSUNNY   66  48  52 S18       29.89S
FOND DU LAC    PTSUNNY   68  46  45 S16G25    29.90S
$$

WIZ022-050-052-031500-
EAST CENTRAL WISCONSIN

CITY           SKY/WX    TMP DP  RH WIND       PRES   REMARKS
STURGEON BAY   SUNNY     68  48  49 SW14      29.90S
MANITOWOC      NOT AVBL
SHEBOYGAN      SUNNY     68  49  50 S10       29.92S
$$

LMZ563-521-522-541>543-031500-
LAKESHORE

STATION/POSITION TIME  TEMP    WIND        PRES    VSBY  WAVE
                       AIR SEA DIR/SP/G                  HT/PER
                 (UTC) (F)     (DEG/KT/KT) (MB)    (MI)  (FT/S)
SHEBOYGAN LKSHOR 1300   58     190/ 10/ 11 1013.5F
KEWAUNEE LKSHORE 1300   50     180/  8/ 10 1011.8S
NORTHPORT PIER   1300   52     150/  6/  8 1011.5F
SISTER BAY LKSHO 1300   65     220/ 12/ 15   N/A
CHAMBERS ISLAND  1300   60     170/  6/ 12 1011.5F
MENOMINEE LKSHOR 1300   62     190/  9/ 13 1011.7F
$$



USA.gov is the U.S. government's official web portal to all federal, state and local government web resources and services.